Regional Weather Roundup
Issued by NWS Pendleton, OR

Home | Current Version | Previous Version | Text Only | Print | Product List | Glossary On
Versions: 1 2 3 4 5 6 7 8 9 10 11 12 13 14 15 16 17 18 19 20 21 22 23 24 25 26 27 28 29 30 31 32 33 34 35 36 37 38 39 40 41 42 43 44 45 46 47 48 49 50
000
ASUS46 KPDT 050025
RWRPDT
PENDLETON REGIONAL WEATHER ROUNDUP
NATIONAL WEATHER SERVICE PENDLETON OREGON
500 PM PDT TUE AUG 4 2015

NOTE: FAIR INDICATES FEW OR NO CLOUDS BELOW 12,000 FEET WITH NO
SIGNIFICANT WEATHER AND/OR OBSTRUCTIONS TO VISIBILITY.

# INDICATES UNOFFICIAL STATION AND DATA

WAZ520-050110-
EAST SLOPES OF WASHINGTON CASCADES

CITY            SKY/WX      TMP DP  RH  WIND    PRES   REMARKS
#BUMPING DAM    N/A         72  N/A N/A S2      N/A
#CLE ELUM HS    N/A         76  38  25  SW12    29.87S
#CLE ELUM LAKE  N/A         75  41  29  W2      29.82R
#CLIFFDEL 2NW   N/A         76  39  26  NW7     N/A
#GLENWOOD       N/A         80  50  35  SW5     29.79S
#MANASTASH CYN  N/A         78  38  24  E1      29.90S
#NELSON         N/A         76  39  26  CALM    29.84S
#NELSON 3SW     N/A         73  37  27  CALM    30.01
#RONALD 2NW     N/A         78  43  29  N3      29.85S
#SNOWDEN        N/A         75  24  15  NW6     N/A
#TEANAWAY 4NE   N/A         79  42  27  SW14    N/A
#TROUT LAKE 1NE N/A         79  43  28  W13     29.82S
$$

WAZ521-050110-
SIMCOE HIGHLANDS

CITY            SKY/WX      TMP DP  RH  WIND    PRES   REMARKS
#BICKLETON HS   N/A         82  18   9  W7      N/A
#CENTERVILLE 4W N/A         82  43  25  CALM    29.66S
#CENTERVILLE 1SWN/A         80  46  30  W21     29.74
#GOLDENDALE     N/A         85  38  19  W15G25  N/A
#GOLDENDALE 1NE N/A         83  29  14  SW7     N/A
#GOLDENDALE 5WNWN/A         82  46  28  SW16    29.77S
#GOODNOE HILLS  N/A         88  36  16  SW17G24 N/A
#LYLE 6NE       N/A         80  46  30  SW14    29.80S
$$

WAZ026-050110-
KITTITAS VALLEY

CITY            SKY/WX      TMP DP  RH  WIND    PRES   REMARKS
ELLENSBURG AP   SUNNY       85  26  12  NW26G41 29.85
6HR MIN TEMP:   82; 6HR MAX TEMP:   89;

YTC-OPS AREA    N/A         79  21  11  W25G33  29.88
6HR MIN TEMP:   73; 6HR MAX TEMP:   82;

#ELLENSBURG CWU N/A         81  31  16  NW21    29.72S
#ELLENSBURG 3NE N/A         80  33  18  N13G24  29.85S
#ELLENSBURG 1E  N/A         81  27  14  NW2     N/A
#KITTITAS 3S    N/A         78  37  23  N15G26  29.75R
#THORP 6N       N/A         76  37  24  W23G36  29.81R
$$

WAZ027-050110-
YAKIMA VALLEY

CITY            SKY/WX      TMP DP  RH  WIND    PRES   REMARKS
SUNNYSIDE AP    SUNNY       89  49  25  W3      29.78S
YAKIMA AIRPORT  SUNNY       93  39  15  VRB6    29.80  HX 89
6HR MIN TEMP:   82; 6HR MAX TEMP:   94;

#DONALD 2NE     N/A         99  20   6  W1      28.64S HX 93
#GRANDVIEW      N/A         88  46  23  W3      29.75S
#MABTON         N/A         88  53  30  N5      29.76S
#MOXEE 2E       N/A         89  13   6  CALM    29.69S
#NACHES 2SW     N/A         85  50  30  W5      29.85F
#OUTLOOK DOT    N/A         N/A N/A N/A N5      N/A
#SELAH 8E       N/A         87  32  14  N14G28  N/A
#TERRACE HTS    N/A         91  44  20  CALM    29.70S HX 87
#TOPPENISH      N/A         90  48  24  CALM    29.65  HX 87
#WAPATO 4NE     N/A         99  20   6  W1      28.64S HX 93
#WEST VALLEY    N/A         89  44  21  S3      29.72S
#W YAKIMA       N/A         90  38  16  CALM    29.74S HX 86
#WHITE SWAN 5E  N/A         93  40  16  SW7     29.73S HX 89
#WILEY CITY 3W  N/A         91  15   6  CALM    29.78F HX 87
$$

WAZ028-050110-
LOWER COLUMBIA BASIN...WASHINGTON

CITY            SKY/WX      TMP DP  RH  WIND    PRES   REMARKS
PASCO           SUNNY       95  45  18  MISG    29.76  HX 91
6HR MIN TEMP:   83; 6HR MAX TEMP:   96;

RICHLAND AWOS   SUNNY       95  46  19  W5      29.76  HX 91
#BASIN CITY 5SW N/A         92  45  20  W6      29.76S HX 88
#BENTON CITY    N/A         90  46  22  N5      29.64  HX 87
#CONNELL 5N     N/A         92  49  23  W5      29.73S HX 89
#CONNELL 5NW    N/A         88  54  31  S7      29.70S
#ELTOPIA 6NW    N/A         87  60  40  S1      28.76S
#KAHLOTUS       N/A         87  45  23  W15G26  29.74S
#KENNEWICK 3S   N/A         91  44  20  N2      29.73S HX 87
#PASCO-BROADMOORN/A         97  52  22  N3      29.61F HX 94
#PATERSON       N/A         92  41  17  W13     29.72  HX 88
#PROSSER        N/A         92  44  19  NW3     29.73S HX 88
#SAGEMOOR 2W    N/A         88  56  34  NW5     29.59S
#TOUCHET 2S     N/A         91  51  26  W6      29.72S HX 88
#WEST PASCO     N/A         94  53  25  N2      29.72S HX 91
$$

WAZ029-050110-
FOOTHILLS OF THE BLUES...WASHINGTON

CITY            SKY/WX      TMP DP  RH  WIND    PRES   REMARKS
WALLA WALLA AP  SUNNY       92  35  13  SW13    29.82  HX 88
6HR MIN TEMP:   84; 6HR MAX TEMP:   93;

#DAYTON SCHOOL  N/A         88  38  17  W5      29.83F
#LOWDEN 2SE     N/A         92  48  22  W7      29.74S HX 89
#PLEASANT VIEW 1N/A         88  41  19  SW7     29.78S
#PRESCOTT       N/A         91  43  19  SW2     29.73S HX 87
#SUDBURY        N/A         92  N/A N/A CALM    N/A
#WHITMAN COLLEGEN/A         89  43  20  SW6     29.80S
#WAITSBURG 8N   N/A         88  31  13  S13     29.65S
#WALLA WALLA U  N/A         91  44  20  CALM    29.74S HX 87
$$

WAZ030-050110-
BLUE MOUNTAINS...WASHINGTON

CITY            SKY/WX      TMP DP  RH  WIND    PRES   REMARKS
$$

ORZ009-041-WAZ024-050110-
COLUMBIA RIVER GORGE

CITY            SKY/WX      TMP DP  RH  WIND    PRES   REMARKS
HOOD RIVER AP   SUNNY       84  37  19  NW7     29.89
THE DALLES AP   SUNNY       89  32  13  W23G30  29.83
6HR MIN TEMP:   80; 6HR MAX TEMP:   90;

#ARLINGTON AIRPON/A         89  32  13  W18     30.28S
#MOSIER 1S      N/A         82  24  12  NW16    29.87S
#MURDOCK        N/A         84  48  29  NW22G29 29.84S

$$

ORZ510-050110-
NORTH CENTRAL OREGON

CITY            SKY/WX      TMP DP  RH  WIND    PRES   REMARKS
#CHENOWITH 1W   N/A         79  33  19  W23     N/A
#DUFUR 9E       N/A         76  31  19  NW17G28 29.88
#GRASS VALLEY 1SN/A         82  36  19  NW18G26 29.84S
#MAUPIN SCHOOL  N/A         87  42  21  W8G24   29.86S
#MORO SCHOOL    N/A         79  41  26  NW16G25 29.91S
#SHANIKO 4NW    N/A         78  40  26  NW17G28 N/A
#TYGH VALLEY 2NEN/A         87  44  22  W10     29.78S
#WAPANITIA AIRPON/A         84  44  25  NW8     29.80S
#WASCO AIRPORT  N/A         84  N/A N/A W17     N/A
#WASCO 5NE      N/A         85  38  19  W12     29.80
$$

ORZ511-050110-
CENTRAL OREGON

CITY            SKY/WX      TMP DP  RH  WIND    PRES   REMARKS
BEND AIRPORT    SUNNY       84  39  20  N10     29.95R
MADRAS AIRPORT  SUNNY       90  39  17  N12     29.92  HX 86
PRINEVILLE AP   SUNNY       88  39  18  W15     29.93S
#BEND 1SW       N/A         83  43  24  N5      N/A
#BEND-AWBREY    N/A         85  44  24  NE5     29.76S
#BEND-KIM LN    N/A         85  46  26  NW5     29.93S
#CULVER         N/A         87  44  22  W7      29.87S
#LAKE BILLY CHINN/A         86   7   5  SW8     29.94R
#POWELL BUTTE   N/A         84  46  27  N9      29.59S
#PRINEVILLE 3N  N/A         83  47  28  NW10    29.73S
#WARM SPRINGS   N/A         88  53  30  W10     29.83S

$$


ORZ509-050110-
EAST SLOPES OF OREGON CASCADES

CITY            SKY/WX      TMP DP  RH  WIND    PRES   REMARKS
#CAMP SHERMAN   N/A         83  38  20  N6      29.80S
#LA PINE 4NW    N/A         81  49  33  CALM    29.83S
#SISTERS AIRPOR N/A         82  53  37  N9G25   30.17S
#SISTERS 1NW    N/A         83  42  24  N15     N/A
#SISTERS 3N     N/A         83  44  25  W2      30.16S
#SUNRIVER       N/A         83  44  25  SW6     29.67F

$$

ORZ044-050110-
LOWER COLUMBIA BASIN...OREGON

CITY            SKY/WX      TMP DP  RH  WIND    PRES   REMARKS
HERMISTON       SUNNY       93  42  17  W16     29.78  HX 89
6HR MIN TEMP:   83; 6HR MAX TEMP:   94;

#BOARDMAN SCHOOLN/A         91  46  21  W7      29.77S HX 87
#BOARDMAN 8SW   N/A         90  45  21  SW13    29.74F HX 86
#ECHO 8SW       N/A         91  46  21  W7      29.80S HX 87
#IONE SCHOOL    N/A         88  33  14  W12     29.79S
#IRRIGON 4NW    N/A         93  47  21  SW9     N/A    HX 89
#UMATILLA SCHOOLN/A         95  60  31  SW12    29.81F HX 95
#UMATILLA       N/A         93  46  20  W8      29.67S HX 89
$$

ORZ507-050110-
NORTHERN FOOTHILLS OF THE BLUES

CITY            SKY/WX      TMP DP  RH  WIND    PRES   REMARKS
PENDLETON AIRPT SUNNY       89  41  19  W15     29.83
#ADAMS 3WNW     N/A         89  43  20  NW8     29.75S
#ATHENA         N/A         88  44  22  W2      29.78S
#CAYUSE         N/A         88  44  22  W7      29.74S
#HELIX SCHOOL   N/A         87  44  22  W7      29.75S
#HELIX 3N       N/A         86  41  21  SW10    29.83F
#HOLDMAN 5SE    N/A         89  43  20  W7      29.84S
#HOLDMAN 6E     N/A         88  43  21  NE12    29.58S
#M-FREEWATER 5SEN/A         89  53  29  W1      29.82F
#PENDLETON DNTN N/A         92  45  20  NW6     N/A    HX 88
#PDT AQUATIC CTRN/A         91  43  19  W7      29.83S HX 87
#PDT SUNRIDGE   N/A         91  44  20  W6      29.83S HX 87
#PENDLETON 7NW  N/A         88  52  29  W13     29.24S
#PILOT ROCK     N/A         86  46  25  W8      29.88S
#TUTUILLA       N/A         88  44  22  W7      29.78F
#UMAPINE 2E     N/A         91  52  27  W1      29.76S HX 88
#WESTON SCHOOL  N/A         87  38  18  N1      29.77S

$$

ORZ508-050110-
SOUTHERN FOOTHILLS OF THE BLUES

CITY            SKY/WX      TMP DP  RH  WIND    PRES   REMARKS
#AJAX           N/A         82  26  13  NW7     29.86R
#CONDON SCHOOL  N/A         80  38  22  NW12    29.89S
#CONDON 5W      N/A         78  31  18  NW15G24 29.92
#FOSSIL SCHOOL  N/A         85  43  23  N10     29.86S
#HEPPNER EOC    N/A         85  38  19  W7      29.71S
#LEXINGTON 2SE  N/A         88  39  18  NW10    29.82S
#OLEX 4N        N/A         87  30  13  W22G31  29.82
#RUGGS 5NE      N/A         84   1   4  W13     30.07S

$$

ORZ502-503-050110-
BLUE MOUNTAINS

CITY            SKY/WX      TMP DP  RH  WIND    PRES   REMARKS
MEACHAM         SUNNY       81  39  22  VRB5    29.97
#HEPPNER 15SE   N/A         78  42  28  N1      29.91S
#LONG CREEK HS  N/A         82  44  26  CALM    29.89S
#PIKES PEAK     N/A         79  39  24  W8      27.99S
#TOLLGATE       N/A         73  41  31  NE1     29.91S
#TROY SCHOOL    N/A         93  47  21  S3      29.54S HX 89
#UKIAH          N/A         81  43  26  NW9     29.81S
$$

ORZ505-050110-
JOHN DAY BASIN

CITY            SKY/WX      TMP DP  RH  WIND    PRES   REMARKS
JOHN DAY        PTCLDY      87  40  19  W13     29.93F
#JOHN DAY KJDY  N/A         89  59  37  SW6     29.89R
#DAYVILLE SCHOOLN/A         88  41  19  W2      29.85R
#MITCHELL       N/A         88  51  28  NW1     30.07F
#MONUMENT HS    N/A         92  41  17  W5      29.83F HX 88
$$

ORZ506-050110-
OCHOCO AND JOHN DAY HIGHLANDS

CITY            SKY/WX      TMP DP  RH  WIND    PRES   REMARKS
#PINE MTN OBS   N/A         72  41  33  NW2     N/A
#PRAIRIE CITY   N/A         88  51  28  NW2     29.65S
#SENECA         N/A         83  N/A N/A N7      N/A
#SENECA 9NW     N/A         83  41  23  CALM    29.75
$$

ORZ049-050110-
GRANDE RONDE VALLEY

CITY            SKY/WX      TMP DP  RH  WIND    PRES   REMARKS
LA GRANDE       PTCLDY      86  43  22  N5      29.87S
#COVE           N/A         88  52  29  NW1     29.91S
#COVE SCHOOL    N/A         90  46  22  CALM    29.91S HX 87
#COVE 6NW       N/A         88  47  24  NW1     29.78S
#ELGIN 3N       N/A         87  40  19  N6      29.86S
#ELGIN 1E       N/A         89  46  23  CALM    N/A
#IMBLER SCHOOL  N/A         84  47  28  N12     29.82S
#ISLAND CITY 4N N/A         82  50  33  CALM    29.96
#UNION 1S       N/A         89  49  25  CALM    29.64S
$$

ORZ050-050110-
WALLOWA COUNTY

CITY            SKY/WX      TMP DP  RH  WIND    PRES   REMARKS
JOSEPH AIRPORT  PTCLDY      81  48  32  S3      29.97
#ENTERPRISE HS  N/A         84  49  30  CALM    29.93
#IMNAHA SCHOOL  N/A         85  52  32  SW9     29.82S
#IMNAHA 10S     N/A         81  59  47  CALM    29.88F
#JOSEPH 3N      N/A         81  47  30  CALM    29.97S
#JOSEPH 3W      N/A         79  42  27  SE1     29.85S
#LOSTINE        N/A         85  50  30  NE1     29.54S
#MT HOWARD 8000 N/A         66  40  38  S1      30.25S
#PROMISE 1S     N/A         82  47  29  S9      29.82S
#WALLOWA SCHOOL N/A         87  45  23  W1      29.85



$$



USA.gov is the U.S. government's official web portal to all federal, state and local government web resources and services.